Location: Helion Bumpstead
(52.0500°N, 0.4000°E)
Time: 21:14:53
(UTC+00:00)

SL-16 R/B - Pass Details

Date: 15 November 2025
Orbit: 839 x 848 km, 71.0° (Epoch: 06 December)

Event Time Altitude Azimuth Distance (km) Brightness Sun altitude
Rises 04:33:12 0° 183° (S) 3,396 5.3 -25.2°
Reaches altitude 10° 04:35:46 10° 176° (S) 2,466 4.6 -24.8°
Maximum altitude 04:41:00 40° 109° (ESE) 1,233 3.5 -24.0°
Drops below altitude 10° 04:46:16 10° 42° (NE) 2,483 5.1 -23.2°
Sets 04:48:51 0° 35° (NE) 3,422 5.8 -22.8°
